Weather in Romashki

Russia / Volgograd Oblast     50°11′48″N   46°40′29″E
temp.,
°C
wind,
m/s
gust,
m/s
humid.,
%
clouds,
%
prec.,
mm/h
press.,
hPa
HPBL,
m
25 july, sun
sun2500:00+21n3651100 0.0 1014210
03:00+18nne3562100 0.0 101576
06:00+20nne34518 0.0 1017177
09:00+25nne333736 0.0 10181243
12:00+27n442958 0.0 10182579
15:00+28n542534 0.0 10182887
18:00+26n663015 0.0 10191361
21:00+21ne47440 0.0 1020124
26 july, mon
mon2600:00+19ene36481 0.0 102186
03:00+17ne34512 0.0 102253
06:00+19ne34480 0.0 1023148
09:00+25nne33320 0.0 10231302
12:00+27nne44251 0.0 10232724
15:00+29nnw54223 0.0 10212957
18:00+27nnw65264 0.0 10211717
21:00+21nne510422 0.0 1022180
27 july, tue
tue2700:00+19ne47440 0.0 1022114
03:00+17ene34430 0.0 102247
06:00+19nne34400 0.0 1023129
09:00+25nne34300 0.0 10221406
12:00+27nne44250 0.0 10202618
15:00+29n552331 0.0 10183039
18:00+28nnw65267 0.0 10191983
21:00+23nnw333711 0.0 101829
28 july, wed
wed2800:00+21ne33452 0.0 101828
03:00+20nne334648 0.0 101839
06:00+21nne23465 0.0 1019117
09:00+27n33345 0.0 10181242
12:00+30nnw332754 0.0 10172967
15:00+31nnw442459 0.0 10163147
18:00+29nnw562934 0.0 1015869
21:00+23n2240100 0.0 101612
29 july, thu
thu2900:00+22ese2244100 0.0 101511
03:00+21ssw33447 0.0 101418
06:00+23ssw364144 0.0 1014172
09:00+30sw782420 0.0 10131517
12:00+34wsw781989 0.0 10113713
15:00+29wnw6932100 0.0 1010568
18:00+28wsw134357 0.0 1010256
21:00+23sw611695 0.9 1011299